Location: Observatoire
(46.1952°N, 5.3391°E)
Time: 00:53:04
(UTC+01:00)

Altair - All Passes

Search period start: 17 February 2026 00:00
Search period end: 27 February 2026 00:00
Orbit: 1502 x 1682 km, 47.2° (Epoch: 15 February)

Date Brightness Start Highest point End Pass type
(mag) Time Alt. Az. Time Alt. Az. Time Alt. Az.
17 Feb - 04:25:17 10° SSW 04:33:24 37° SE 04:41:42 10° ENE visible
17 Feb - 06:28:01 10° WSW 06:37:15 80° SSE 06:46:49 10° ENE visible
17 Feb - 08:32:44 10° W 08:42:09 85° N 08:51:57 10° E daylight
17 Feb - 10:37:30 10° WNW 10:46:56 69° SSW 10:56:44 10° SE daylight
17 Feb - 12:42:47 10° WNW 12:50:36 29° SW 12:58:38 10° S daylight
18 Feb - 04:00:22 10° SSW 04:08:18 34° SE 04:16:22 10° ENE visible
18 Feb - 06:02:50 10° WSW 06:12:02 77° SSE 06:21:32 10° ENE visible
18 Feb - 08:07:30 10° W 08:16:53 84° N 08:26:39 10° E daylight
18 Feb - 10:12:17 10° WNW 10:21:43 72° SSW 10:31:31 10° SE daylight
18 Feb - 12:17:26 10° WNW 12:25:28 31° SW 12:33:44 10° S daylight
19 Feb - 03:35:30 10° SSW 03:43:11 32° SE 03:51:01 10° ENE visible
19 Feb - 05:37:40 10° WSW 05:46:49 74° SSE 05:56:16 10° ENE visible
19 Feb - 07:42:16 10° W 07:51:37 84° N 08:01:20 10° E daylight
19 Feb - 09:47:04 10° WNW 09:56:29 75° SSW 10:06:17 10° ESE daylight
19 Feb - 11:52:06 10° WNW 12:00:20 34° SW 12:08:49 10° SSE daylight
20 Feb - 03:10:39 10° S 03:18:06 29° SE 03:25:38 10° ENE visible
20 Feb - 05:12:31 10° SW 05:21:37 71° SSE 05:31:00 10° ENE visible
20 Feb - 07:17:01 10° W 07:26:21 84° N 07:36:03 10° E daylight
20 Feb - 09:21:50 10° WNW 09:31:15 78° SSW 09:41:03 10° ESE daylight
20 Feb - 11:26:47 10° WNW 11:35:11 36° SW 11:43:51 10° SSE daylight
21 Feb - 02:45:50 10° S 02:53:00 27° SE 03:00:15 10° E visible
21 Feb - 04:47:22 10° SW 04:56:25 68° SSE 05:05:44 10° ENE visible
21 Feb - 06:51:47 10° W 07:01:06 85° N 07:10:45 10° E visible
21 Feb - 08:56:37 10° WNW 09:06:02 80° SSW 09:15:47 10° ESE daylight
21 Feb - 11:01:30 10° WNW 11:10:02 39° SW 11:18:51 10° SSE daylight
22 Feb - 02:21:04 10° S 02:27:55 24° SE 02:34:50 10° E visible
22 Feb - 04:22:14 10° SW 04:31:15 64° SSE 04:40:28 10° ENE visible
22 Feb - 06:26:33 10° W 06:35:50 85° N 06:45:27 10° E visible
22 Feb - 08:31:23 10° WNW 08:40:47 83° SSW 08:50:32 10° ESE daylight
22 Feb - 10:36:13 10° WNW 10:44:53 41° SW 10:53:50 10° SSE daylight
22 Feb - 12:45:22 10° WSW 12:47:38 11° WSW 12:49:55 10° SW daylight
23 Feb - 01:56:22 10° S 02:02:51 22° SE 02:09:22 10° E visible
23 Feb - 03:57:07 10° SW 04:06:04 61° SSE 04:15:12 10° ENE visible
23 Feb - 06:01:19 10° W 06:10:35 86° N 06:20:09 10° E visible
23 Feb - 08:06:10 10° WNW 08:15:33 85° SSW 08:25:15 10° ESE daylight
23 Feb - 10:10:57 10° WNW 10:19:43 44° SW 10:28:47 10° SSE daylight
23 Feb - 12:18:56 10° W 12:22:34 13° WSW 12:26:15 10° SW daylight
24 Feb - 01:31:43 10° S 01:37:47 20° SE 01:43:52 10° E visible
24 Feb - 03:32:01 10° SW 03:40:54 58° SSE 03:49:56 10° ENE visible
24 Feb - 05:36:06 10° W 05:45:20 87° N 05:54:52 10° E visible
24 Feb - 07:40:57 10° WNW 07:50:18 87° SSW 07:59:59 10° ESE daylight
24 Feb - 09:45:42 10° WNW 09:54:33 47° SW 10:03:43 10° SSE daylight
24 Feb - 11:52:58 10° W 11:57:30 14° SW 12:02:07 10° SSW daylight
25 Feb - 01:07:08 10° SSE 01:12:43 18° SE 01:18:18 10° E visible
25 Feb - 03:06:56 10° SW 03:15:44 54° SE 03:24:40 10° ENE visible
25 Feb - 05:10:52 10° WSW 05:20:05 88° NNW 05:29:35 10° E visible
25 Feb - 07:15:44 10° WNW 07:25:03 89° SSW 07:34:42 10° ESE daylight
25 Feb - 09:20:27 10° WNW 09:29:23 50° SW 09:38:37 10° SE daylight
25 Feb - 11:27:12 10° W 11:32:25 16° SW 11:37:45 10° SSW daylight
26 Feb - 00:42:41 10° SSE 00:47:40 16° SE 00:52:39 10° E visible
26 Feb - 02:41:52 10° SW 02:50:35 51° SE 02:59:24 10° ENE visible
26 Feb - 04:45:38 10° WSW 04:54:51 90° NNW 05:04:18 10° E visible
26 Feb - 06:50:30 10° W 06:59:48 89° NNE 07:09:25 10° ESE visible
26 Feb - 08:55:13 10° WNW 09:04:12 53° SW 09:13:30 10° SE daylight
26 Feb - 11:01:33 10° W 11:07:20 18° SW 11:13:15 10° SSW daylight
